Weather in Koliadivka

Ukraine / Luhansk Region     49°05′06″N   39°11′50″E
temp.,
°C
wind,
m/s
gust,
m/s
humid.,
%
clouds,
%
prec.,
mm/h
press.,
hPa
HPBL,
m
13 may, thu
thu1300:00+10ese2580100 0.0 1015103
03:00+9n118979 0.4 101510
06:00+10ese2591100 0.4 1015160
09:00+16sse57745 1.3 1014577
12:00+20sse575653 0.1 10141716
15:00+22sse565194 0.2 10132087
18:00+20se4767100 0.2 1014189
21:00+16se368199 0.3 101478
14 may, fri
fri1400:00+14ese33897 0.0 101433
03:00+14e479199 0.0 1014109
06:00+14e41187100 0.0 1013218
09:00+20se71265100 0.0 1013573
12:00+24se6852100 0.0 10131030
15:00+26ese674946 0.0 10111108
18:00+24se58625 0.0 1011393
21:00+19sse488571 0.0 1011114
15 may, sat
sat1500:00+17s338974 0.0 101140
03:00+16sw22895 0.5 101216
06:00+16w2383100 0.0 101493
09:00+19wnw227099 0.0 1014234
12:00+24w23485 0.0 10141177
15:00+26wsw24405 0.0 10141991
18:00+25wsw225224 0.0 1013301
21:00+19n2261100 0.0 101411
16 may, sun
sun1600:00+17n3472100 0.0 101452
03:00+16nne3574100 0.0 101481
06:00+16ne388067 0.0 1014161
09:00+22ne576735 0.0 1013563
12:00+26ene56525 0.0 10121195
15:00+27e56415 0.0 10111260
18:00+25ese4755100 0.0 1010286
21:00+20ene466518 0.0 100974
17 may, mon
mon1700:00+18e512665 0.0 1009184
03:00+16ese5126136 0.0 1009184
06:00+16e413665 0.0 1009250
09:00+22ese815487 0.0 1009660
12:00+26ese916395 0.0 10081500
15:00+27se812444 0.0 10081787
18:00+25se58555 0.0 1007470
21:00+20se337291 0.0 100839